Location: West Cummington
(42.4920°N, 72.9680°W)
Time: 03:28:39
(UTC-05:00)

ATLAS 2AS CENTAUR R/B - Visible Passes

Search period start: 22 February 2018 00:00
Search period end: 04 March 2018 00:00
Orbit: 911 x 1301 km, 63.7° (Epoch: 21 February)

Date Brightness Start Highest point End Pass type
(mag) Time Alt. Az. Time Alt. Az. Time Alt. Az.
22 Feb 5.4 00:58:07 14° NE 00:58:07 14° NE 00:58:57 10° NE visible
22 Feb 4.5 02:45:32 28° N 02:45:32 28° N 02:49:55 10° NNE visible
22 Feb 4.8 04:32:57 14° NW 04:36:14 17° NNW 04:41:15 10° NNE visible
23 Feb 4.8 02:02:01 24° NNE 02:02:01 24° NNE 02:05:09 10° NNE visible
23 Feb 4.6 03:49:26 19° NNW 03:50:28 20° NNW 03:56:07 10° NNE visible
23 Feb 5.0 05:40:13 10° NNW 05:45:01 16° N 05:49:43 10° NE visible
24 Feb 5.1 01:18:29 18° NNE 01:18:29 18° NNE 01:20:20 10° NNE visible
24 Feb 4.6 03:05:54 24° NNW 03:05:54 24° NNW 03:11:11 10° NNE visible
24 Feb 5.0 04:54:34 10° NW 04:59:09 16° N 05:03:41 10° NE visible
25 Feb 5.4 00:34:55 12° NE 00:34:55 12° NE 00:35:28 10° NE visible
25 Feb 4.7 02:22:20 25° N 02:22:20 25° N 02:26:21 10° NNE visible
25 Feb 4.9 04:09:46 13° NW 04:13:17 16° N 04:18:01 10° NNE visible
25 Feb 4.9 06:02:07 10° NNW 06:07:47 20° NNE 06:13:18 10° ENE visible
26 Feb 4.9 01:38:46 22° NNE 01:38:46 22° NNE 01:41:35 10° NNE visible
26 Feb 4.8 03:26:11 17° NNW 03:27:28 18° NNW 03:32:43 10° NNE visible
26 Feb 5.0 05:16:59 10° NNW 05:22:03 17° NNE 05:27:00 10° NE visible
27 Feb 5.2 00:55:10 17° NNE 00:55:10 17° NNE 00:56:48 10° NNE visible
27 Feb 4.7 02:42:35 21° NNW 02:42:35 21° NNW 02:47:41 10° NNE visible
27 Feb 5.1 04:31:33 10° NNW 04:36:13 16° N 04:40:48 10° NE visible
28 Feb 5.5 00:11:33 12° NNE 00:11:33 12° NNE 00:11:58 10° NE visible
28 Feb 4.8 01:58:58 22° N 01:58:58 22° N 02:02:48 10° NNE visible
28 Feb 5.0 03:46:22 11° NW 03:50:21 16° N 03:54:54 10° NNE visible
28 Feb 4.9 05:38:39 10° NNW 05:44:44 23° NNE 05:50:35 10° ENE visible
01 Mar 5.0 01:15:19 20° NNE 01:15:19 20° NNE 01:18:00 10° NNE visible
01 Mar 4.9 03:02:44 16° NNW 03:04:29 17° N 03:09:25 10° NNE visible
01 Mar 5.0 04:53:39 10° NNW 04:59:03 19° NNE 05:04:19 10° ENE visible
02 Mar 5.2 00:31:40 16° NNE 00:31:40 16° NNE 00:33:13 10° NNE visible
02 Mar 4.9 02:19:04 19° NNW 02:19:04 19° NNW 02:24:14 10° NNE visible
02 Mar 5.1 04:08:25 10° NNW 04:13:16 17° N 04:18:02 10° NE visible
02 Mar 5.4 23:47:59 12° NNE 23:47:59 12° NNE 23:48:25 10° NNE visible
03 Mar 4.9 01:35:23 21° N 01:35:23 21° N 01:39:16 10° NNE visible
03 Mar 5.2 03:22:49 10° NNW 03:27:24 16° N 03:31:56 10° NE visible
03 Mar 4.8 05:15:08 10° NNW 05:21:37 26° NNE 05:27:49 10° E visible
